Nacogdoches, TX

2:01 PM CDT on March 27, 2017 (GMT -0500)
Mangham Regional

Weather History for KOCH - March, 2014

Change the Weather History Date:

Wednesday, March 19, 2014

  Actual Average Record
Temperature  
Mean Temperature 58 °F -  
Max Temperature 69 °F 67 °F 84 °F (2011)
Min Temperature 48 °F 46 °F 42 °F (2009)
Degree Days  
Heating Degree Days 6    
Growing Degree Days 8 (Base 50)    
Moisture  
Dew Point 44 °F    
Average Humidity 60    
Maximum Humidity 94    
Minimum Humidity 33    
Precipitation  
Precipitation 0.00 in - - ()
Sea Level Pressure  
Sea Level Pressure 30.07 in    
Wind  
Wind Speed 5 mph (NNW)    
Max Wind Speed 14 mph    
Max Gust Speed 18 mph    
Visibility 10 miles    
Events      
Averages and records for this station are not official NWS values.
T = Trace of Precipitation, MM = Missing Value Source: NWS Daily Summary

Daily Weather History Graph

Daily Weather History Graph

Search for Another Location

Airport or City:

Trip Planner

Search our weather history database for the weather conditions in past years. The results will help you decide how hot, cold, wet, or windy it might be!

Date:

Astronomy

Mar. 19, 2014 Rise Set
Actual Time 7:23 AM CDT 7:29 PM CDT
Civil Twilight 6:59 AM CDT 7:53 PM CDT
Nautical Twilight 6:31 AM CDT 8:22 PM CDT
Astronomical Twilight 6:02 AM CDT 8:50 PM CDT
Moon 10:35 PM CDT (3/19) 9:01 AM CDT (3/19)
Length of Visible Light 12h 54m
Length of Day
12h 05m
Waning Gibbous, 91% of the Moon is Illuminated
Mar 19
Waning Gibbous
Mar 23
Last Quarter
Mar 30
New
Apr 7
First Quarter
Apr 15
Full

Hourly Weather History & Observations

Time (CDT) Temp. Dew Point Humidity Pressure Visibility Wind Dir Wind Speed Gust Speed Precip Events Conditions
12:15 AM 59.0 °F 51.8 °F 77% 29.88 in 10.0 mi SSW 5.8 mph - N/A   Clear
12:35 AM 57.2 °F 53.6 °F 88% 29.90 in 10.0 mi SSW 3.5 mph - N/A   Mostly Cloudy
12:55 AM 59.0 °F 53.6 °F 82% 29.90 in 10.0 mi South 6.9 mph - N/A   Overcast
1:15 AM 59.0 °F 53.6 °F 82% 29.91 in 10.0 mi South 3.5 mph - N/A   Overcast
1:35 AM 59.0 °F 53.6 °F 82% 29.92 in 10.0 mi South 5.8 mph - N/A   Overcast
1:55 AM 59.0 °F 53.6 °F 82% 29.92 in 10.0 mi South 4.6 mph - N/A   Overcast
2:15 AM 59.0 °F 53.6 °F 82% 29.95 in 10.0 mi NW 3.5 mph - N/A   Overcast
2:35 AM 59.0 °F 53.6 °F 82% 29.95 in 10.0 mi Calm Calm - N/A   Overcast
2:55 AM 60.8 °F 53.6 °F 77% 29.96 in 10.0 mi SW 3.5 mph - N/A   Overcast
3:15 AM 59.0 °F 53.6 °F 82% 29.96 in 10.0 mi Calm Calm - N/A   Overcast
3:35 AM 60.8 °F 53.6 °F 77% 29.97 in 10.0 mi Calm Calm - N/A   Overcast
3:55 AM 59.0 °F 53.6 °F 82% 29.97 in 10.0 mi Calm Calm - N/A   Overcast
4:15 AM 59.0 °F 53.6 °F 82% 29.97 in 10.0 mi Calm Calm - N/A   Overcast
4:35 AM 59.0 °F 53.6 °F 82% 29.97 in 10.0 mi Calm Calm - N/A   Overcast
4:55 AM 59.0 °F 55.4 °F 88% 29.97 in 10.0 mi South 3.5 mph - N/A   Overcast
5:15 AM 57.2 °F 53.6 °F 88% 29.97 in 10.0 mi SSE 4.6 mph - N/A   Mostly Cloudy
5:35 AM 57.2 °F 53.6 °F 88% 29.97 in 10.0 mi SE 4.6 mph - N/A   Partly Cloudy
5:55 AM 55.4 °F 53.6 °F 94% 29.98 in 10.0 mi Calm Calm - N/A   Partly Cloudy
6:15 AM 55.4 °F 53.6 °F 94% 29.99 in 10.0 mi Calm Calm - N/A   Mostly Cloudy
6:35 AM 55.4 °F 53.6 °F 94% 30.00 in 10.0 mi Calm Calm - N/A   Overcast
6:55 AM 57.2 °F 53.6 °F 88% 30.01 in 10.0 mi NNE 4.6 mph - N/A   Overcast
7:15 AM 57.2 °F 55.4 °F 94% 30.02 in 10.0 mi Calm Calm - N/A   Overcast
7:35 AM 57.2 °F 53.6 °F 88% 30.03 in 10.0 mi Calm Calm - N/A   Overcast
7:55 AM 57.2 °F 55.4 °F 94% 30.04 in 10.0 mi North 4.6 mph - N/A   Overcast
8:15 AM 57.2 °F 55.4 °F 94% 30.05 in 10.0 mi North 5.8 mph - N/A   Overcast
8:35 AM 57.2 °F 44.6 °F 63% 30.05 in 10.0 mi North 8.1 mph - N/A   Overcast
8:55 AM 57.2 °F 44.6 °F 63% 30.07 in 10.0 mi NNW 12.7 mph - N/A   Overcast
9:15 AM 57.2 °F 39.2 °F 51% 30.09 in 10.0 mi NNW 10.4 mph - N/A   Overcast
9:35 AM 57.2 °F 39.2 °F 51% 30.10 in 10.0 mi North 11.5 mph 17.3 mph N/A   Scattered Clouds
9:55 AM 57.2 °F 39.2 °F 51% 30.11 in 10.0 mi North 11.5 mph - N/A   Clear
10:15 AM 59.0 °F 37.4 °F 45% 30.12 in 10.0 mi North 13.8 mph 18.4 mph N/A   Clear
10:35 AM 59.0 °F 37.4 °F 45% 30.13 in 10.0 mi NNW 12.7 mph - N/A   Clear
10:55 AM 60.8 °F 37.4 °F 42% 30.14 in 10.0 mi North 13.8 mph - N/A   Clear
11:15 AM 60.8 °F 35.6 °F 39% 30.14 in 10.0 mi North 11.5 mph - N/A   Clear
11:35 AM 60.8 °F 37.4 °F 42% 30.15 in 10.0 mi North 10.4 mph 16.1 mph N/A   Clear
11:55 AM 62.6 °F 35.6 °F 37% 30.14 in 10.0 mi North 9.2 mph - N/A   Clear
12:15 PM 62.6 °F 37.4 °F 39% 30.14 in 10.0 mi NNW 9.2 mph - N/A   Clear
12:35 PM 64.4 °F 39.2 °F 40% 30.14 in 10.0 mi NNE 6.9 mph - N/A   Clear
12:55 PM 64.4 °F 37.4 °F 37% 30.14 in 10.0 mi NNW 9.2 mph - N/A   Clear
1:15 PM 66.2 °F 37.4 °F 35% 30.13 in 10.0 mi NNW 3.5 mph - N/A   Clear
1:35 PM 66.2 °F 39.2 °F 37% 30.13 in 10.0 mi NW 8.1 mph - N/A   Clear
1:55 PM 66.2 °F 39.2 °F 37% 30.12 in 10.0 mi NW 3.5 mph - N/A   Clear
2:15 PM 68.0 °F 39.2 °F 35% 30.11 in 9.0 mi North 8.1 mph - N/A   Clear
2:35 PM 69.8 °F 39.2 °F 33% 30.11 in 10.0 mi NNW 4.6 mph - N/A   Clear
2:55 PM 69.8 °F 39.2 °F 33% 30.11 in 10.0 mi North 6.9 mph - N/A   Clear
3:15 PM 69.8 °F 39.2 °F 33% 30.11 in 7.0 mi North 10.4 mph - N/A   Clear
3:35 PM 69.8 °F 39.2 °F 33% 30.10 in 9.0 mi North 10.4 mph - N/A   Clear
3:55 PM 69.8 °F 41.0 °F 35% 30.10 in 10.0 mi NW 12.7 mph - N/A   Clear
4:15 PM 69.8 °F 39.2 °F 33% 30.10 in 9.0 mi NNW 11.5 mph 18.4 mph N/A   Clear
4:35 PM 69.8 °F 39.2 °F 33% 30.10 in 8.0 mi NNW 10.4 mph - N/A   Clear
4:55 PM 68.0 °F 39.2 °F 35% 30.10 in 9.0 mi North 9.2 mph 16.1 mph N/A   Clear
5:15 PM 66.2 °F 37.4 °F 35% 30.10 in 10.0 mi NNW 8.1 mph - N/A   Clear
5:35 PM 66.2 °F 41.0 °F 40% 30.11 in 10.0 mi North 10.4 mph - N/A   Clear
5:55 PM 66.2 °F 39.2 °F 37% 30.11 in 10.0 mi NNW 8.1 mph - N/A   Clear
6:15 PM 66.2 °F 39.2 °F 37% 30.11 in 10.0 mi North 6.9 mph - N/A   Clear
6:35 PM 64.4 °F 39.2 °F 40% 30.12 in 10.0 mi NNW 9.2 mph - N/A   Clear
6:55 PM 62.6 °F 39.2 °F 42% 30.13 in 10.0 mi North 8.1 mph - N/A   Clear
7:15 PM 60.8 °F 39.2 °F 45% 30.13 in 10.0 mi North 5.8 mph - N/A   Clear
7:35 PM 59.0 °F 39.2 °F 48% 30.13 in 10.0 mi North 6.9 mph - N/A   Clear
7:55 PM 57.2 °F 39.2 °F 51% 30.13 in 10.0 mi North 5.8 mph - N/A   Clear
8:15 PM 55.4 °F 39.2 °F 54% 30.13 in 10.0 mi North 5.8 mph - N/A   Clear
8:35 PM 55.4 °F 39.2 °F 54% 30.14 in 10.0 mi North 5.8 mph - N/A   Clear
8:55 PM 55.4 °F 39.2 °F 54% 30.14 in 10.0 mi North 4.6 mph - N/A   Clear
9:15 PM 53.6 °F 39.2 °F 58% 30.15 in 10.0 mi NNW 6.9 mph - N/A   Clear
9:35 PM 53.6 °F 39.2 °F 58% 30.16 in 10.0 mi North 5.8 mph - N/A   Clear
9:55 PM 53.6 °F 39.2 °F 58% 30.17 in 10.0 mi North 3.5 mph - N/A   Clear
10:15 PM 51.8 °F 39.2 °F 62% 30.17 in 10.0 mi Calm Calm - N/A   Clear
10:35 PM 50.0 °F 37.4 °F 62% 30.17 in 10.0 mi North 3.5 mph - N/A   Clear
10:55 PM 48.2 °F 39.2 °F 71% 30.18 in 10.0 mi North 4.6 mph - N/A   Clear
11:15 PM 48.2 °F 39.2 °F 71% 30.18 in 10.0 mi North 3.5 mph - N/A   Clear
11:35 PM 50.0 °F 39.2 °F 66% 30.18 in 10.0 mi Calm Calm - N/A   Clear
11:55 PM 48.2 °F 37.4 °F 66% 30.19 in 10.0 mi NNW 4.6 mph - N/A   Clear